Simultaneous Nadir Overpasses (SNOs) Predictions

Prediction of SNOs between FY3D and NOAA-19 Satellite Orbit:

Table of predicted SNOs for the next 14.0 days since TLE Epoch: 11/12/2023
Index Date (FY3D) Time (FY3D) Lat,Lon (FY3D) SZA (FY3D ) Date (NOAA-19) Time (NOAA-19) Lat,Lon (NOAA-19) SZA (NOAA-19 ) Distance(km) Time Diff (sec)
1 11/25/2023 06:45:26 -76.15,-106.32 83.22 11/25/2023 06:44:13 -76.13,-107.29 83.23 25.89 73
2 11/25/2023 07:36:16 76.30, 60.43 96.95 11/25/2023 07:35:12 76.28, 60.52 96.93 3.01 64
3 11/25/2023 08:27:00 -76.27,-132.16 83.08 11/25/2023 08:26:08 -76.29,-132.19 83.06 2.24 52
4 11/25/2023 09:17:47 76.29, 35.08 96.95 11/25/2023 09:17:10 76.31, 35.13 96.97 2.53 37
5 11/25/2023 10:08:32 -76.31,-157.67 83.03 11/25/2023 10:08:06 -76.32,-157.57 83.02 2.81 26
6 11/25/2023 10:59:19 76.33, 9.57 97.00 11/25/2023 10:59:09 76.29, 9.57 96.97 3.69 10
7 11/25/2023 11:50:03 -76.30, 176.98 83.03 11/25/2023 11:50:05 -76.30, 176.87 83.02 2.95 2
8 11/25/2023 12:40:50 76.32, -15.78 97.01 11/25/2023 12:41:07 76.32, -15.82 97.01 1.06 17
9 11/25/2023 13:31:35 -76.34, 151.47 82.97 11/25/2023 13:32:03 -76.33, 151.49 82.98 0.65 28
10 11/25/2023 14:22:22 76.35, -41.29 97.06 11/25/2023 14:23:05 76.35, -41.20 97.05 2.36 43
11 11/25/2023 15:13:06 -76.33, 126.13 82.97 11/25/2023 15:14:01 -76.36, 126.10 82.94 3.55 55
12 11/25/2023 16:03:53 76.35, -66.64 97.06 11/25/2023 16:05:03 76.38, -66.59 97.09 3.52 70
13 11/25/2023 16:54:44 -76.63, 99.60 82.64 11/25/2023 16:55:54 -76.60, 101.57 82.69 50.95 70



Historial Predications of SNOs between FY3D and NOAA-19
